| time (UTC) | temp F | wind direction | speed MPH | gust MPH | rain 1hr in | rain 24hr in | rain mn in | humidity % | barometer mb |
| 20260508035735 | 57 | 109 | 0.0 | 0.0 | 0.00 | 0.22 | 0.22 | 98 | 1016.4 |
| 20260508035232 | 57 | 112 | 0.0 | 0.0 | 0.00 | 0.22 | 0.22 | 98 | 1016.4 |
| 20260508034728 | 57 | 110 | 0.0 | 0.0 | 0.00 | 0.22 | 0.22 | 98 | 1016.1 |
| 20260508034226 | 58 | 110 | 0.0 | 0.0 | 0.00 | 0.22 | 0.22 | 98 | 1016.0 |
| 20260508033723 | 58 | 110 | 0.0 | 0.0 | 0.00 | 0.22 | 0.22 | 98 | 1016.2 |
| 20260508033221 | 58 | 113 | 0.0 | 0.0 | 0.00 | 0.22 | 0.22 | 98 | 1016.1 |
| 20260508032719 | 58 | 110 | 0.0 | 0.0 | 0.00 | 0.22 | 0.22 | 98 | 1016.1 |
| 20260508032215 | 58 | 110 | 0.0 | 0.0 | 0.00 | 0.22 | 0.22 | 98 | 1016.2 |
| 20260508031712 | 59 | 110 | 0.0 | 0.0 | 0.00 | 0.22 | 0.22 | 98 | 1016.3 |
| 20260508031208 | 58 | 111 | 0.0 | 0.0 | 0.00 | 0.22 | 0.22 | 97 | 1016.2 |
| 20260508030705 | 59 | 110 | 0.0 | 0.0 | 0.00 | 0.22 | 0.22 | 97 | 1015.8 |
| 20260508030203 | 59 | 109 | 0.0 | 0.0 | 0.00 | 0.22 | 0.22 | 97 | 1016.0 |
| 20260508025658 | 59 | 110 | 0.0 | 0.0 | 0.00 | 0.22 | 0.22 | 97 | 1016.2 |
| 20260508025156 | 59 | 110 | 0.0 | 0.0 | 0.00 | 0.22 | 0.22 | 97 | 1016.5 |
| 20260508024651 | 60 | 112 | 0.0 | 0.0 | 0.00 | 0.22 | 0.22 | 97 | 1015.8 |
| 20260508024149 | 59 | 110 | 0.0 | 0.0 | 0.00 | 0.22 | 0.22 | 97 | 1015.4 |
| 20260508023645 | 59 | 111 | 0.0 | 0.0 | 0.00 | 0.22 | 0.22 | 97 | 1015.6 |
| 20260508023143 | 59 | 110 | 0.0 | 0.0 | 0.00 | 0.22 | 0.22 | 97 | 1015.9 |
| 20260508022638 | 60 | 110 | 0.0 | 0.0 | 0.00 | 0.22 | 0.22 | 97 | 1015.5 |
| 20260508022136 | 60 | 108 | 0.0 | 0.0 | 0.00 | 0.22 | 0.22 | 97 | 1015.5 |
| 20260508021632 | 60 | 109 | 0.0 | 0.0 | 0.00 | 0.22 | 0.22 | 96 | 1015.9 |
| 20260508021127 | 60 | 108 | 0.0 | 0.0 | 0.00 | 0.22 | 0.22 | 96 | 1015.5 |
| 20260508020626 | 60 | 110 | 0.0 | 0.0 | 0.00 | 0.22 | 0.22 | 96 | 1015.5 |
| 20260508020123 | 60 | 110 | 0.0 | 0.0 | 0.00 | 0.22 | 0.22 | 96 | 1015.6 |
| 20260508015620 | 60 | 110 | 0.0 | 0.0 | 0.00 | 0.22 | 0.22 | 96 | 1015.4 |
| 20260508015117 | 60 | 109 | 0.0 | 0.0 | 0.00 | 0.22 | 0.22 | 96 | 1015.5 |
| 20260508014613 | 60 | 110 | 0.0 | 0.0 | 0.00 | 0.22 | 0.22 | 95 | 1015.3 |
| 20260508014110 | 60 | 96 | 0.0 | 0.0 | 0.00 | 0.22 | 0.22 | 95 | 1015.3 |
| 20260508013606 | 60 | 110 | 0.0 | 0.0 | 0.00 | 0.22 | 0.22 | 95 | 1015.5 |
| 20260508013103 | 60 | 110 | 0.0 | 0.0 | 0.00 | 0.22 | 0.22 | 94 | 1015.4 |
| 20260508012600 | 61 | 109 | 0.0 | 0.0 | 0.00 | 0.22 | 0.22 | 94 | 1015.4 |
| 20260508012057 | 61 | 110 | 0.0 | 0.0 | 0.00 | 0.22 | 0.22 | 94 | 1015.5 |
| 20260508011556 | 62 | 110 | 0.0 | 0.0 | 0.00 | 0.22 | 0.22 | 93 | 1015.3 |
| 20260508011053 | 62 | 109 | 0.0 | 0.0 | 0.00 | 0.22 | 0.22 | 92 | 1015.5 |
| 20260508010549 | 62 | 110 | 0.0 | 0.0 | 0.00 | 0.22 | 0.22 | 92 | 1015.1 |
| 20260508010047 | 62 | 110 | 0.0 | 0.0 | 0.00 | 0.22 | 0.22 | 91 | 1015.2 |
| 20260508005543 | 63 | 110 | 0.0 | 0.0 | 0.00 | 0.22 | 0.22 | 90 | 1015.2 |
| 20260508005040 | 63 | 110 | 0.0 | 0.0 | 0.00 | 0.22 | 0.22 | 88 | 1015.2 |
| 20260508004536 | 63 | 113 | 0.0 | 0.0 | 0.00 | 0.22 | 0.22 | 87 | 1014.6 |
| 20260508004033 | 64 | 110 | 0.0 | 0.0 | 0.00 | 0.22 | 0.22 | 86 | 1015.0 |
| 20260508003529 | 64 | 110 | 0.0 | 0.0 | 0.00 | 0.22 | 0.22 | 84 | 1014.8 |
| 20260508003027 | 65 | 110 | 0.0 | 0.0 | 0.00 | 0.22 | 0.22 | 83 | 1014.6 |
| 20260508002523 | 66 | 110 | 0.0 | 0.0 | 0.00 | 0.22 | 0.22 | 83 | 1014.8 |
| 20260508002021 | 66 | 108 | 0.0 | 0.0 | 0.00 | 0.22 | 0.22 | 81 | 1014.8 |
| 20260508001516 | 66 | 110 | 0.0 | 0.0 | 0.00 | 0.22 | 0.22 | 80 | 1014.9 |
| 20260508001013 | 67 | 110 | 0.0 | 0.0 | 0.00 | 0.22 | 0.22 | 80 | 1014.5 |
| 20260508000508 | 68 | 110 | 0.0 | 0.0 | 0.00 | 0.22 | 0.22 | 80 | 1014.3 |
| 20260508000006 | 68 | 109 | 0.0 | 0.0 | 0.00 | 0.22 | 0.22 | 80 | 1014.5 |
| 20260507235502 | 68 | 107 | 0.0 | 0.0 | 0.00 | 0.22 | 0.22 | 79 | 1014.5 |
| 20260507235000 | 69 | 109 | 0.0 | 0.0 | 0.00 | 0.22 | 0.22 | 80 | 1014.3 |
| 20260507234456 | 69 | 116 | 0.0 | 0.0 | 0.00 | 0.22 | 0.22 | 79 | 1014.3 |
| 20260507233953 | 69 | 110 | 0.0 | 0.0 | 0.00 | 0.22 | 0.22 | 79 | 1014.1 |
| 20260507233449 | 68 | 110 | 0.0 | 0.0 | 0.00 | 0.22 | 0.22 | 80 | 1014.3 |
| 20260507232948 | 69 | 108 | 0.0 | 0.0 | 0.00 | 0.22 | 0.22 | 81 | 1014.2 |
| 20260507232444 | 69 | 103 | 0.0 | 0.0 | 0.00 | 0.22 | 0.22 | 79 | 1014.2 |
| 20260507231942 | 69 | 111 | 0.0 | 0.0 | 0.00 | 0.22 | 0.22 | 78 | 1014.3 |
| 20260507231438 | 70 | 111 | 0.0 | 0.0 | 0.00 | 0.22 | 0.22 | 78 | 1014.2 |
| 20260507230935 | 70 | 111 | 0.0 | 0.0 | 0.00 | 0.22 | 0.22 | 75 | 1014.0 |
| 20260507230432 | 70 | 111 | 0.0 | 0.0 | 0.00 | 0.22 | 0.22 | 75 | 1014.0 |
| 20260507225932 | 70 | 110 | 0.0 | 0.0 | 0.00 | 0.22 | 0.22 | 74 | 1014.0 |
| 20260507225428 | 70 | 108 | 0.0 | 0.0 | 0.00 | 0.22 | 0.22 | 75 | 1013.9 |
| 20260507224925 | 70 | 110 | 0.0 | 0.0 | 0.00 | 0.22 | 0.22 | 76 | 1013.8 |
| 20260507224421 | 70 | 111 | 0.0 | 0.0 | 0.00 | 0.22 | 0.22 | 75 | 1014.0 |
| 20260507223918 | 71 | 110 | 0.0 | 0.0 | 0.00 | 0.22 | 0.22 | 72 | 1014.1 |
| 20260507223414 | 70 | 106 | 0.0 | 0.0 | 0.00 | 0.22 | 0.22 | 73 | 1014.0 |
| 20260507222911 | 70 | 110 | 0.0 | 1.0 | 0.00 | 0.22 | 0.22 | 74 | 1013.8 |
| 20260507222408 | 71 | 110 | 1.0 | 1.0 | 0.00 | 0.22 | 0.22 | 71 | 1014.0 |
| 20260507221905 | 71 | 88 | 1.0 | 1.0 | 0.00 | 0.22 | 0.22 | 71 | 1013.9 |
| 20260507221401 | 70 | 113 | 0.0 | 1.0 | 0.00 | 0.22 | 0.22 | 74 | 1013.8 |
| 20260507220857 | 71 | 100 | 0.0 | 1.0 | 0.00 | 0.22 | 0.22 | 72 | 1013.9 |
| 20260507220355 | 72 | 107 | 0.0 | 1.0 | 0.00 | 0.22 | 0.22 | 71 | 1013.9 |
| 20260507215852 | 72 | 109 | 0.0 | 0.0 | 0.00 | 0.22 | 0.22 | 74 | 1013.9 |
| 20260507215348 | 73 | 102 | 1.0 | 1.0 | 0.00 | 0.22 | 0.22 | 72 | 1013.8 |
| 20260507214845 | 73 | 103 | 1.0 | 2.0 | 0.00 | 0.22 | 0.22 | 71 | 1013.9 |
| 20260507214343 | 72 | 105 | 0.0 | 0.0 | 0.00 | 0.22 | 0.22 | 73 | 1013.8 |
| 20260507213838 | 71 | 105 | 0.0 | 0.0 | 0.00 | 0.22 | 0.22 | 72 | 1013.8 |
| 20260507213335 | 72 | 78 | 1.0 | 1.0 | 0.00 | 0.22 | 0.22 | 71 | 1013.9 |
| 20260507212831 | 71 | 113 | 0.0 | 1.0 | 0.00 | 0.22 | 0.22 | 74 | 1013.5 |
| 20260507212327 | 71 | 101 | 1.0 | 1.0 | 0.00 | 0.22 | 0.22 | 75 | 1013.8 |
| 20260507211824 | 70 | 112 | 0.0 | 0.0 | 0.00 | 0.22 | 0.22 | 74 | 1013.7 |
| 20260507211321 | 69 | 123 | 0.0 | 1.0 | 0.00 | 0.22 | 0.22 | 78 | 1013.7 |
| 20260507210818 | 70 | 113 | 0.0 | 0.0 | 0.00 | 0.22 | 0.22 | 76 | 1013.4 |
| 20260507210315 | 70 | 111 | 1.0 | 1.0 | 0.00 | 0.22 | 0.22 | 77 | 1013.3 |
| 20260507205811 | 69 | 113 | 1.0 | 1.0 | 0.00 | 0.22 | 0.22 | 76 | 1013.7 |
| 20260507205308 | 70 | 109 | 0.0 | 0.0 | 0.00 | 0.22 | 0.22 | 73 | 1013.8 |
| 20260507204804 | 70 | 109 | 1.0 | 1.0 | 0.00 | 0.22 | 0.22 | 73 | 1013.8 |
| 20260507204302 | 70 | 108 | 0.0 | 0.0 | 0.00 | 0.22 | 0.22 | 76 | 1013.7 |
| 20260507203800 | 71 | 108 | 0.0 | 0.0 | 0.00 | 0.22 | 0.22 | 76 | 1013.7 |
| 20260507203258 | 71 | 111 | 0.0 | 0.0 | 0.00 | 0.22 | 0.22 | 78 | 1014.0 |
| 20260507202753 | 70 | 121 | 0.0 | 2.0 | 0.00 | 0.22 | 0.22 | 78 | 1014.3 |
| 20260507202249 | 70 | 112 | 0.0 | 0.0 | 0.00 | 0.22 | 0.22 | 76 | 1014.1 |
| 20260507201744 | 69 | 108 | 0.0 | 0.0 | 0.00 | 0.22 | 0.22 | 77 | 1013.9 |
| 20260507201241 | 70 | 108 | 0.0 | 0.0 | 0.00 | 0.22 | 0.22 | 77 | 1014.0 |
| 20260507200738 | 70 | 93 | 1.0 | 1.0 | 0.00 | 0.22 | 0.22 | 77 | 1014.3 |
| 20260507200233 | 70 | 84 | 1.0 | 1.0 | 0.00 | 0.22 | 0.22 | 77 | 1014.1 |
| 20260507195730 | 69 | 108 | 0.0 | 0.0 | 0.00 | 0.22 | 0.22 | 76 | 1014.0 |
| 20260507195227 | 69 | 109 | 0.0 | 0.0 | 0.00 | 0.22 | 0.22 | 77 | 1014.0 |
| 20260507194725 | 70 | 98 | 0.0 | 0.0 | 0.00 | 0.22 | 0.22 | 76 | 1014.4 |
| 20260507194220 | 69 | 105 | 0.0 | 1.0 | 0.00 | 0.22 | 0.22 | 79 | 1014.4 |
| 20260507193717 | 69 | 107 | 0.0 | 0.0 | 0.00 | 0.22 | 0.22 | 78 | 1013.9 |
| 20260507193214 | 71 | 108 | 0.0 | 0.0 | 0.00 | 0.22 | 0.22 | 75 | 1014.1 |
| 20260507192710 | 71 | 63 | 2.0 | 2.0 | 0.00 | 0.22 | 0.22 | 73 | 1014.2 |
| 20260507192207 | 70 | 111 | 1.0 | 1.0 | 0.00 | 0.22 | 0.22 | 76 | 1014.2 |
| 20260507191703 | 69 | 110 | 1.0 | 1.0 | 0.00 | 0.22 | 0.22 | 77 | 1014.3 |
| 20260507191201 | 69 | 99 | 1.0 | 1.0 | 0.00 | 0.22 | 0.22 | 77 | 1014.2 |
| 20260507190657 | 70 | 114 | 1.0 | 1.0 | 0.00 | 0.22 | 0.22 | 76 | 1014.4 |
| 20260507190156 | 71 | 113 | 0.0 | 0.0 | 0.00 | 0.22 | 0.22 | 75 | 1014.3 |
| 20260507185654 | 71 | 155 | 2.0 | 2.0 | 0.00 | 0.22 | 0.22 | 74 | 1014.2 |
| 20260507185150 | 70 | 179 | 4.0 | 5.0 | 0.00 | 0.22 | 0.22 | 79 | 1014.1 |
| 20260507184648 | 68 | 114 | 0.0 | 0.0 | 0.00 | 0.22 | 0.22 | 80 | 1014.3 |
| 20260507184146 | 67 | 111 | 0.0 | 1.0 | 0.00 | 0.22 | 0.22 | 81 | 1014.7 |
| 20260507183642 | 66 | 106 | 0.0 | 0.0 | 0.00 | 0.22 | 0.22 | 83 | 1014.5 |
| 20260507183139 | 66 | 109 | 1.0 | 2.0 | 0.00 | 0.22 | 0.22 | 84 | 1014.6 |
| 20260507182636 | 65 | 80 | 1.0 | 2.0 | 0.00 | 0.22 | 0.22 | 84 | 1015.1 |
| 20260507182131 | 66 | 113 | 0.0 | 1.0 | 0.00 | 0.22 | 0.22 | 83 | 1015.0 |
| 20260507181628 | 66 | 88 | 0.0 | 1.0 | 0.00 | 0.22 | 0.22 | 85 | 1015.1 |
| 20260507181124 | 67 | 86 | 1.0 | 1.0 | 0.00 | 0.22 | 0.22 | 82 | 1014.8 |
| 20260507180621 | 66 | 106 | 1.0 | 1.0 | 0.00 | 0.22 | 0.22 | 85 | 1014.8 |
| 20260507180118 | 66 | 102 | 0.0 | 1.0 | 0.00 | 0.22 | 0.22 | 84 | 1015.0 |
| 20260507175614 | 66 | 112 | 2.0 | 2.0 | 0.00 | 0.22 | 0.22 | 84 | 1015.0 |
| 20260507175111 | 67 | 112 | 0.0 | 0.0 | 0.00 | 0.22 | 0.22 | 84 | 1015.1 |
| 20260507174608 | 67 | 114 | 1.0 | 1.0 | 0.00 | 0.22 | 0.22 | 85 | 1015.0 |
| 20260507174106 | 66 | 76 | 1.0 | 2.0 | 0.00 | 0.22 | 0.22 | 85 | 1014.9 |
| 20260507173603 | 66 | 112 | 1.0 | 1.0 | 0.00 | 0.22 | 0.22 | 85 | 1014.8 |
| 20260507173100 | 65 | 142 | 2.0 | 3.0 | 0.00 | 0.22 | 0.22 | 87 | 1015.1 |
| 20260507172556 | 66 | 105 | 1.0 | 1.0 | 0.00 | 0.22 | 0.22 | 87 | 1015.5 |
| 20260507172053 | 65 | 88 | 3.0 | 3.0 | 0.00 | 0.22 | 0.22 | 86 | 1015.3 |
| 20260507171548 | 65 | 111 | 0.0 | 0.0 | 0.00 | 0.22 | 0.22 | 88 | 1015.2 |
| 20260507171046 | 65 | 110 | 1.0 | 1.0 | 0.00 | 0.22 | 0.22 | 88 | 1015.2 |
| 20260507170543 | 65 | 107 | 0.0 | 0.0 | 0.00 | 0.22 | 0.22 | 89 | 1015.2 |
| 20260507170040 | 65 | 110 | 1.0 | 1.0 | 0.00 | 0.22 | 0.22 | 89 | 1015.2 |
| 20260507165535 | 64 | 96 | 0.0 | 1.0 | 0.00 | 0.22 | 0.22 | 91 | 1015.4 |
| 20260507165032 | 64 | 110 | 0.0 | 1.0 | 0.00 | 0.22 | 0.22 | 91 | 1015.4 |
| 20260507164528 | 64 | 97 | 0.0 | 0.0 | 0.00 | 0.22 | 0.22 | 91 | 1015.3 |
| 20260507164025 | 63 | 103 | 1.0 | 2.0 | 0.00 | 0.22 | 0.22 | 92 | 1015.4 |
| 20260507163522 | 64 | 112 | 2.0 | 2.0 | 0.00 | 0.22 | 0.22 | 92 | 1015.3 |
| 20260507163020 | 64 | 107 | 0.0 | 0.0 | 0.00 | 0.22 | 0.22 | 91 | 1015.0 |
| 20260507162515 | 63 | 110 | 1.0 | 1.0 | 0.00 | 0.22 | 0.22 | 92 | 1015.2 |
| 20260507162012 | 63 | 97 | 0.0 | 0.0 | 0.00 | 0.22 | 0.22 | 94 | 1015.0 |
| 20260507161508 | 63 | 117 | 2.0 | 2.0 | 0.00 | 0.22 | 0.22 | 94 | 1015.0 |
| 20260507161005 | 63 | 117 | 3.0 | 3.0 | 0.00 | 0.22 | 0.22 | 93 | 1014.8 |
| 20260507160501 | 63 | 84 | 0.0 | 1.0 | 0.00 | 0.22 | 0.22 | 93 | 1014.6 |
| 20260507155956 | 64 | 107 | 0.0 | 0.0 | 0.00 | 0.22 | 0.22 | 93 | 1014.8 |
| 20260507155453 | 64 | 95 | 0.0 | 0.0 | 0.00 | 0.22 | 0.22 | 92 | 1014.8 |
| 20260507154950 | 65 | 105 | 0.0 | 1.0 | 0.00 | 0.22 | 0.22 | 91 | 1014.8 |
| 20260507154447 | 65 | 113 | 2.0 | 2.0 | 0.00 | 0.22 | 0.22 | 91 | 1014.5 |
| 20260507153944 | 65 | 96 | 1.0 | 1.0 | 0.00 | 0.22 | 0.22 | 93 | 1014.4 |
| 20260507153441 | 65 | 113 | 1.0 | 1.0 | 0.00 | 0.22 | 0.22 | 93 | 1014.4 |
| 20260507152937 | 65 | 99 | 0.0 | 0.0 | 0.00 | 0.22 | 0.22 | 94 | 1014.0 |
| 20260507152433 | 65 | 110 | 1.0 | 2.0 | 0.00 | 0.22 | 0.22 | 94 | 1014.2 |
| 20260507151929 | 65 | 105 | 1.0 | 1.0 | 0.00 | 0.22 | 0.22 | 96 | 1014.2 |
| 20260507151426 | 65 | 110 | 0.0 | 1.0 | 0.00 | 0.22 | 0.22 | 99 | 1014.1 |
| 20260507150923 | 64 | 99 | 0.0 | 0.0 | 0.00 | 0.22 | 0.22 | 99 | 1014.1 |
| 20260507150420 | 64 | 105 | 1.0 | 1.0 | 0.00 | 0.22 | 0.22 | 99 | 1014.2 |
| 20260507145916 | 64 | 105 | 1.0 | 1.0 | 0.00 | 0.22 | 0.22 | 99 | 1014.0 |
| 20260507145412 | 64 | 107 | 0.0 | 0.0 | 0.00 | 0.22 | 0.22 | 99 | 1014.4 |
| 20260507144909 | 63 | 132 | 0.0 | 0.0 | 0.00 | 0.22 | 0.22 | 99 | 1014.3 |
| 20260507144406 | 63 | 107 | 0.0 | 0.0 | 0.00 | 0.22 | 0.22 | 99 | 1014.2 |
| 20260507143903 | 62 | 110 | 0.0 | 0.0 | 0.00 | 0.22 | 0.22 | 99 | 1014.1 |
| 20260507143400 | 62 | 108 | 0.0 | 0.0 | 0.00 | 0.22 | 0.22 | 99 | 1014.2 |
| 20260507142857 | 62 | 112 | 0.0 | 0.0 | 0.00 | 0.22 | 0.22 | 99 | 1014.2 |
| 20260507142353 | 61 | 69 | 1.0 | 1.0 | 0.00 | 0.22 | 0.22 | 99 | 1014.3 |
| 20260507141850 | 61 | 102 | 0.0 | 0.0 | 0.00 | 0.22 | 0.22 | 99 | 1014.3 |
| 20260507141346 | 61 | 109 | 0.0 | 1.0 | 0.00 | 0.22 | 0.22 | 99 | 1014.3 |
| 20260507140843 | 61 | 105 | 0.0 | 0.0 | 0.00 | 0.22 | 0.22 | 99 | 1014.0 |
| 20260507140339 | 61 | 121 | 0.0 | 0.0 | 0.00 | 0.22 | 0.22 | 99 | 1013.9 |
| 20260507135838 | 61 | 100 | 1.0 | 1.0 | 0.00 | 0.22 | 0.22 | 99 | 1013.6 |
| 20260507135334 | 61 | 94 | 0.0 | 0.0 | 0.00 | 0.22 | 0.22 | 99 | 1013.8 |
| 20260507134832 | 61 | 116 | 0.0 | 1.0 | 0.00 | 0.22 | 0.22 | 99 | 1014.0 |
| 20260507134327 | 61 | 108 | 0.0 | 0.0 | 0.00 | 0.22 | 0.22 | 99 | 1013.9 |
| 20260507133823 | 60 | 99 | 0.0 | 1.0 | 0.00 | 0.22 | 0.22 | 99 | 1013.8 |
| 20260507133319 | 60 | 104 | 0.0 | 0.0 | 0.00 | 0.22 | 0.22 | 99 | 1013.6 |
| 20260507132818 | 61 | 105 | 0.0 | 0.0 | 0.00 | 0.22 | 0.22 | 99 | 1013.5 |
| 20260507132314 | 61 | 109 | 0.0 | 0.0 | 0.00 | 0.22 | 0.22 | 99 | 1013.8 |
| 20260507131811 | 60 | 107 | 0.0 | 0.0 | 0.00 | 0.22 | 0.22 | 99 | 1013.8 |
| 20260507131308 | 60 | 110 | 0.0 | 0.0 | 0.00 | 0.22 | 0.22 | 99 | 1013.4 |
| 20260507130804 | 60 | 105 | 1.0 | 1.0 | 0.00 | 0.22 | 0.22 | 99 | 1013.4 |
| 20260507130302 | 60 | 103 | 0.0 | 0.0 | 0.00 | 0.22 | 0.22 | 99 | 1013.4 |
| 20260507125801 | 60 | 82 | 0.0 | 1.0 | 0.00 | 0.22 | 0.22 | 99 | 1013.5 |
| 20260507125258 | 60 | 116 | 0.0 | 0.0 | 0.05 | 0.22 | 0.22 | 99 | 1013.4 |
| 20260507124755 | 60 | 107 | 1.0 | 1.0 | 0.05 | 0.22 | 0.22 | 99 | 1013.3 |
| 20260507124251 | 61 | 104 | 1.0 | 1.0 | 0.00 | 0.21 | 0.21 | 99 | 1013.1 |
| 20260507123750 | 61 | 110 | 0.0 | 1.0 | 0.00 | 0.21 | 0.21 | 99 | 1012.9 |
| 20260507123247 | 61 | 105 | 0.0 | 0.0 | 0.00 | 0.21 | 0.21 | 99 | 1012.8 |
| 20260507122742 | 61 | 111 | 1.0 | 1.0 | 0.00 | 0.21 | 0.21 | 99 | 1012.5 |
| 20260507122238 | 60 | 113 | 1.0 | 1.0 | 0.00 | 0.21 | 0.21 | 99 | 1012.3 |
| 20260507121734 | 60 | 108 | 0.0 | 1.0 | 0.00 | 0.21 | 0.21 | 99 | 1012.3 |
| 20260507121230 | 60 | 120 | 0.0 | 0.0 | 0.00 | 0.21 | 0.21 | 99 | 1012.1 |
| 20260507120726 | 60 | 106 | 1.0 | 2.0 | 0.00 | 0.21 | 0.21 | 99 | 1012.1 |
| 20260507120224 | 60 | 109 | 0.0 | 0.0 | 0.00 | 0.21 | 0.21 | 99 | 1012.2 |
| 20260507115719 | 60 | 108 | 0.0 | 0.0 | 0.00 | 0.21 | 0.21 | 99 | 1012.1 |
| 20260507115216 | 60 | 111 | 0.0 | 0.0 | 0.00 | 0.21 | 0.21 | 99 | 1012.3 |
| 20260507114711 | 60 | 107 | 0.0 | 0.0 | 0.00 | 0.21 | 0.21 | 99 | 1012.3 |
| 20260507114209 | 60 | 108 | 0.0 | 0.0 | 0.00 | 0.21 | 0.21 | 99 | 1012.4 |
| 20260507113706 | 60 | 101 | 0.0 | 1.0 | 0.00 | 0.21 | 0.21 | 99 | 1012.2 |
| 20260507113203 | 60 | 106 | 0.0 | 0.0 | 0.00 | 0.21 | 0.21 | 99 | 1012.0 |
| 20260507112701 | 60 | 99 | 0.0 | 0.0 | 0.00 | 0.21 | 0.21 | 99 | 1011.7 |
| 20260507112157 | 60 | 142 | 0.0 | 0.0 | 0.00 | 0.21 | 0.21 | 99 | 1011.7 |
| 20260507111655 | 60 | 111 | 0.0 | 0.0 | 0.00 | 0.21 | 0.21 | 99 | 1012.0 |
| 20260507111152 | 60 | 101 | 2.0 | 3.0 | 0.00 | 0.21 | 0.21 | 99 | 1012.0 |
| 20260507110647 | 60 | 100 | 0.0 | 0.0 | 0.00 | 0.21 | 0.21 | 99 | 1012.2 |
| 20260507110144 | 61 | 99 | 1.0 | 1.0 | 0.00 | 0.21 | 0.21 | 99 | 1012.0 |
| 20260507105641 | 61 | 108 | 1.0 | 1.0 | 0.00 | 0.21 | 0.21 | 99 | 1011.9 |
| 20260507105137 | 62 | 124 | 2.0 | 2.0 | 0.00 | 0.21 | 0.21 | 99 | 1011.2 |
| 20260507104634 | 62 | 106 | 0.0 | 1.0 | 0.00 | 0.21 | 0.21 | 99 | 1011.3 |
| 20260507104131 | 63 | 110 | 0.0 | 0.0 | 0.00 | 0.21 | 0.21 | 99 | 1011.0 |
| 20260507103627 | 64 | 104 | 0.0 | 1.0 | 0.00 | 0.21 | 0.21 | 99 | 1011.2 |
| 20260507103124 | 64 | 101 | 1.0 | 2.0 | 0.00 | 0.21 | 0.21 | 99 | 1011.1 |
| 20260507102620 | 64 | 109 | 0.0 | 0.0 | 0.00 | 0.21 | 0.21 | 99 | 1010.9 |
| 20260507102116 | 64 | 124 | 0.0 | 1.0 | 0.00 | 0.21 | 0.21 | 99 | 1010.9 |
| 20260507101612 | 64 | 108 | 0.0 | 0.0 | 0.00 | 0.21 | 0.21 | 99 | 1010.3 |
| 20260507101109 | 63 | 119 | 0.0 | 0.0 | 0.00 | 0.21 | 0.21 | 99 | 1010.5 |
| 20260507100606 | 63 | 108 | 0.0 | 0.0 | 0.00 | 0.21 | 0.21 | 99 | 1010.4 |
| 20260507100104 | 64 | 118 | 0.0 | 0.0 | 0.00 | 0.21 | 0.21 | 99 | 1010.5 |
| 20260507095602 | 64 | 109 | 0.0 | 0.0 | 0.00 | 0.21 | 0.21 | 99 | 1010.6 |
| 20260507095058 | 64 | 111 | 0.0 | 0.0 | 0.00 | 0.21 | 0.21 | 99 | 1010.3 |
| 20260507094554 | 64 | 110 | 0.0 | 2.0 | 0.00 | 0.21 | 0.21 | 99 | 1010.5 |
| 20260507094051 | 64 | 110 | 0.0 | 0.0 | 0.00 | 0.21 | 0.21 | 99 | 1010.7 |
| 20260507093549 | 64 | 108 | 0.0 | 0.0 | 0.00 | 0.21 | 0.21 | 99 | 1010.6 |
| 20260507093047 | 64 | 111 | 0.0 | 0.0 | 0.00 | 0.21 | 0.21 | 99 | 1010.7 |
| 20260507092543 | 64 | 111 | 0.0 | 0.0 | 0.00 | 0.21 | 0.21 | 99 | 1010.6 |
| 20260507092040 | 64 | 141 | 0.0 | 1.0 | 0.00 | 0.21 | 0.21 | 99 | 1010.4 |
| 20260507091537 | 64 | 95 | 0.0 | 1.0 | 0.00 | 0.21 | 0.21 | 99 | 1010.5 |
| 20260507091033 | 64 | 103 | 2.0 | 3.0 | 0.00 | 0.21 | 0.21 | 99 | 1010.6 |
| 20260507090529 | 64 | 110 | 0.0 | 0.0 | 0.00 | 0.21 | 0.21 | 99 | 1010.4 |
| 20260507090026 | 64 | 108 | 0.0 | 0.0 | 0.00 | 0.21 | 0.21 | 99 | 1010.5 |
| 20260507085523 | 65 | 110 | 0.0 | 0.0 | 0.00 | 0.21 | 0.21 | 99 | 1010.7 |
| 20260507085020 | 65 | 109 | 0.0 | 0.0 | 0.00 | 0.21 | 0.21 | 99 | 1010.4 |
| 20260507084516 | 65 | 110 | 0.0 | 0.0 | 0.00 | 0.21 | 0.21 | 99 | 1010.4 |
| 20260507084014 | 65 | 110 | 0.0 | 0.0 | 0.00 | 0.21 | 0.21 | 99 | 1010.4 |
| 20260507083509 | 65 | 109 | 0.0 | 0.0 | 0.00 | 0.21 | 0.21 | 99 | 1010.1 |
| 20260507083007 | 65 | 108 | 0.0 | 0.0 | 0.00 | 0.21 | 0.21 | 99 | 1010.1 |
| 20260507082503 | 65 | 110 | 0.0 | 0.0 | 0.00 | 0.21 | 0.21 | 99 | 1010.0 |
| 20260507081959 | 65 | 104 | 0.0 | 0.0 | 0.00 | 0.21 | 0.21 | 99 | 1010.3 |
| 20260507081455 | 65 | 108 | 0.0 | 0.0 | 0.00 | 0.21 | 0.21 | 99 | 1010.1 |
| 20260507080952 | 65 | 109 | 0.0 | 0.0 | 0.00 | 0.21 | 0.21 | 99 | 1010.2 |
| 20260507080448 | 65 | 109 | 0.0 | 0.0 | 0.00 | 0.21 | 0.21 | 99 | 1009.9 |
| 20260507075944 | 66 | 109 | 0.0 | 0.0 | 0.00 | 0.21 | 0.21 | 99 | 1010.2 |
| 20260507075440 | 66 | 98 | 0.0 | 0.0 | 0.07 | 0.21 | 0.21 | 99 | 1010.1 |
| 20260507074937 | 66 | 107 | 0.0 | 0.0 | 0.12 | 0.21 | 0.21 | 99 | 1010.2 |
| 20260507074434 | 66 | 108 | 0.0 | 0.0 | 0.17 | 0.20 | 0.20 | 99 | 1010.3 |
| 20260507073932 | 66 | 107 | 0.0 | 0.0 | 0.19 | 0.19 | 0.19 | 99 | 1010.7 |
| 20260507073428 | 66 | 111 | 0.0 | 0.0 | 0.12 | 0.18 | 0.18 | 99 | 1010.7 |
| 20260507072925 | 66 | 105 | 0.0 | 0.0 | 0.05 | 0.16 | 0.16 | 99 | 1010.6 |
| 20260507072422 | 66 | 110 | 0.0 | 0.0 | 0.12 | 0.16 | 0.16 | 99 | 1010.3 |
| 20260507071920 | 66 | 85 | 1.0 | 1.0 | 0.19 | 0.15 | 0.15 | 99 | 1010.1 |
| 20260507071417 | 66 | 107 | 1.0 | 1.0 | 0.24 | 0.14 | 0.14 | 99 | 1008.5 |
| 20260507070913 | 66 | 113 | 0.0 | 0.0 | 0.17 | 0.13 | 0.13 | 99 | 1008.9 |
| 20260507070410 | 67 | 107 | 2.0 | 2.0 | 0.00 | 0.10 | 0.10 | 99 | 1009.8 |
| 20260507065907 | 67 | 117 | 0.0 | 0.0 | 0.00 | 0.10 | 0.10 | 99 | 1010.5 |
| 20260507065404 | 67 | 109 | 0.0 | 0.0 | 0.07 | 0.10 | 0.10 | 99 | 1011.1 |
| 20260507064901 | 67 | 112 | 0.0 | 0.0 | 0.12 | 0.10 | 0.10 | 99 | 1011.1 |
| 20260507064359 | 67 | 107 | 0.0 | 0.0 | 0.12 | 0.09 | 0.09 | 99 | 1011.2 |
| 20260507063857 | 67 | 109 | 0.0 | 0.0 | 0.12 | 0.08 | 0.08 | 99 | 1011.3 |
| 20260507063354 | 67 | 107 | 0.0 | 0.0 | 0.05 | 0.07 | 0.07 | 99 | 1011.1 |
| 20260507062850 | 67 | 112 | 0.0 | 0.0 | 0.07 | 0.06 | 0.06 | 99 | 1011.3 |
| 20260507062347 | 67 | 108 | 0.0 | 0.0 | 0.07 | 0.06 | 0.06 | 99 | 1011.4 |
| 20260507061845 | 67 | 109 | 0.0 | 0.0 | 0.00 | 0.05 | 0.05 | 99 | 1011.5 |
| 20260507061343 | 67 | 109 | 0.0 | 0.0 | 0.05 | 0.05 | 0.05 | 99 | 1011.5 |
| 20260507060841 | 67 | 106 | 0.0 | 0.0 | 0.05 | 0.05 | 0.05 | 99 | 1011.7 |
| 20260507060337 | 67 | 111 | 0.0 | 0.0 | 0.00 | 0.04 | 0.04 | 99 | 1011.6 |
| 20260507055834 | 67 | 110 | 0.0 | 0.0 | 0.07 | 0.04 | 0.04 | 99 | 1011.7 |
| 20260507055329 | 67 | 107 | 0.0 | 0.0 | 0.07 | 0.04 | 0.04 | 99 | 1011.8 |
| 20260507054826 | 67 | 104 | 0.0 | 0.0 | 0.05 | 0.03 | 0.03 | 99 | 1011.9 |
| 20260507054322 | 67 | 108 | 0.0 | 0.0 | 0.12 | 0.03 | 0.03 | 99 | 1011.8 |
| 20260507053820 | 67 | 107 | 2.0 | 2.0 | 0.14 | 0.02 | 0.02 | 99 | 1012.2 |
| 20260507053317 | 67 | 110 | 0.0 | 0.0 | 0.07 | 0.01 | 0.01 | 99 | 1011.9 |
| 20260507052816 | 67 | 109 | 1.0 | 1.0 | 0.00 | 0.00 | 0.00 | 99 | 1012.0 |
| 20260507052312 | 68 | 109 | 0.0 | 0.0 | 0.00 | 0.00 | 0.00 | 99 | 1012.1 |
| 20260507051810 | 67 | 110 | 0.0 | 0.0 | 0.00 | 0.00 | 0.00 | 99 | 1012.2 |
| 20260507051308 | 67 | 108 | 0.0 | 0.0 | 0.00 | 0.00 | 0.00 | 99 | 1011.9 |
| 20260507050804 | 67 | 109 | 0.0 | 0.0 | 0.00 | 0.00 | 0.00 | 99 | 1011.9 |
| 20260507050300 | 67 | 112 | 0.0 | 0.0 | 0.00 | 0.00 | 0.00 | 99 | 1011.5 |
| 20260507045757 | 67 | 110 | 0.0 | 0.0 | 0.00 | 1.25 | 1.25 | 99 | 1011.6 |
| 20260507045254 | 67 | 109 | 0.0 | 0.0 | 0.05 | 1.25 | 1.25 | 99 | 1011.7 |
| 20260507044751 | 67 | 110 | 0.0 | 0.0 | 0.05 | 1.25 | 1.25 | 99 | 1011.6 |
| 20260507044247 | 67 | 109 | 0.0 | 0.0 | 0.07 | 1.24 | 1.24 | 99 | 1011.7 |
| 20260507043744 | 67 | 108 | 0.0 | 0.0 | 0.07 | 1.24 | 1.24 | 99 | 1012.0 |
| 20260507043240 | 67 | 107 | 0.0 | 0.0 | 0.12 | 1.23 | 1.23 | 99 | 1011.9 |
| 20260507042737 | 67 | 100 | 0.0 | 0.0 | 0.24 | 1.23 | 1.23 | 99 | 1012.1 |
| 20260507042232 | 67 | 96 | 1.0 | 1.0 | 0.28 | 1.21 | 1.21 | 99 | 1012.8 |
| 20260507041730 | 68 | 108 | 2.0 | 2.0 | 0.38 | 1.20 | 1.20 | 99 | 1012.5 |
| 20260507041226 | 68 | 114 | 1.0 | 1.0 | 0.24 | 1.17 | 1.17 | 99 | 1011.6 |
| 20260507040723 | 68 | 101 | 0.0 | 0.0 | 0.24 | 1.14 | 1.14 | 99 | 1012.2 |
| 20260507040219 | 68 | 142 | 0.0 | 0.0 | 0.24 | 1.12 | 1.12 | 99 | 1011.8 |